User: anonymous
Location: Unspecified
(0.0000°N, 0.0000°E)
Time: 00:20:32
(UTC+00:00)
Language:

Optus B3 - Orbit

View from above orbital plane
View from above orbital plane
View from above satellite
View from above satellite

Ground track
Ground track

The orbit data is extracted from the following two-line orbital elements,

1 23227U 94055A   14274.48944819 -.00000089  00000-0  00000+0 0  5706
2 23227 005.7242 058.2814 0005939 135.3812 156.9084 01.00272999 73557
Epoch (UTC): 01 October 2014 11:44:48
Eccentricity: 0.0005939
inclination: 5.7242°
perigee height: 35761 km
apogee height: 35811 km
right ascension of ascending node: 58.2814°
argument of perigee: 135.3812°
revolutions per day: 1.00272999
mean anomaly at epoch: 156.9084°
orbit number at epoch: 7355

The dashed part of the orbit path shows where the satellite is in the earth's shadow,  

DLR